Погода в Фатиме

Португалия     39°37′16″N   8°39′29″W
темп.,
°C
ветер,
м/с
пор.,
м/с
влажн.,
%
обл.,
%
осадки,
мм/ч
давл.,
гПа
погр.,
м
7 августа, вс
вс701:00+15сз22965 0.0 101621
04:00+15всв11930 0.0 101511
07:00+14ююв12950 0.0 101619
10:00+22ююв23550 0.0 1016511
13:00+29ю34280 0.0 10151146
16:00+31ююз34260 0.0 10131534
19:00+26з33440 0.0 1013603
22:00+16сз23900 0.0 101563
8 августа, пн
пн801:00+15ссз22940 0.0 101528
04:00+15юз01900 0.0 101411
07:00+15з00920 0.0 101511
10:00+23ююв22550 0.0 1016546
13:00+29ююв33320 0.0 10151287
16:00+32зюз34250 0.0 10131673
19:00+24сз44570 0.0 1015452
22:00+16ссз33910 0.0 101667
9 августа, вт
вт901:00+16ссз22890 0.0 101541
04:00+16сз00830 0.0 101511
07:00+16всв00840 0.0 101511
10:00+25ююв11450 0.0 1015452
13:00+32ююв33270 0.0 10141364
16:00+35ююз24180 0.0 10121930
19:00+27зсз45460 0.0 1012388
22:00+18сз23840 0.0 101452
10 августа, ср
ср1001:00+19с11700 0.0 101411
04:00+19вюв11670 0.1 101312
07:00+18юв11720 0.1 101315
10:00+27юв35420 0.0 1013570
13:00+34ю58280 0.0 10122120
16:00+33зюз563310 0.0 10101410
19:00+24зсз34590 0.1 1011427
22:00+18сз22890 0.0 101360
11 августа, чт
чт1101:00+16юз11900 0.0 101311
04:00+15ю22962 0.0 101342
07:00+14юв229940 0.0 101449
10:00+20ююв347013 0.0 1014594
13:00+28ю34380 0.0 10141391
16:00+30зюз35330 0.0 10121688
19:00+24зсз34520 0.0 1013547
22:00+16сз23880 0.0 101555